Showing default

SHIYAN 27D, 63602

Orbit data source: Space-Track

SHIYAN 27D, 63602 is a payload satellite owned by CAST (CN) in SSO that was launched on Fri, 18 Apr 2025 UTC via a CHANG ZHENG 6A launch vehicle from the Taiyaun Space Center, China (TSC). Payload-class satellites include a variety of spacecraft equipped with specific instruments for various scientific and technological missions. These include communications satellites like Starlink; space stations such as the ISS; scientific satellites like the Hubble; Earth observation satellites from companies like Planet Labs, Umbra, and HawkEye 360; GPS; miniature CubeSats for education and research; and military/defense satellites.

Loading next visibility...
Identifier
63602, 2025-078D
Orbit
SSO
Country
Flag of CNCN / PRC
Related business
Manufacturer
CAST
Mission
Operational Defense Radar Imaging
Bus & Motor
SW27, Unknown motor
Mass
300 kg wet, ~300 kg dry
Launch date (UTC)
2025-04-18 (5 months ago)
Launch vehicle
CHANG ZHENG 6A
Launch site
Taiyaun Space Center, China (TSC)
Object type
Payload
Rocket body
Debris
Shape & HBR
Box + 1 Pan, 5.0 m
Radar Cross Section
13.200 m², Large (>1 m²)

Expand to show TLE details & history
Last TLE update: 12 hours ago

TLE from 12 hours ago
0 SHIYAN 27D
1 63602U 25078D   25261.27857765  .00000027  00000-0  10003-3 0  9998
2 63602  99.6976 267.5265 0000839  79.2047 280.9185 13.57213545 20648
Epoch: 2025-09-18T06:41Z
TLE epoch observation values (Epoch: 2025-09-18T06:41:09.108Z)
Latitude
-0.00012°
Longitude
169.79611°
Altitude
1,048.514 km
Speed
7.328 km/s
True Right ascension
17h 50m 06s
True Declination
0° 00' 00"
Sunlit
Object was in daylight at epoch
Visualization orbit readout
Latitude
Unknown
Longitude
Unknown
Altitude
Unknown
Speed
Unknown
Apparent Right ascension
Unknown
Apparent Declination
Unknown
Sunlit
N/A
Visualization observer readout
Local Sidereal Time
11:34:23
Azimuth
Unknown
Elevation
Unknown
Doppler factor
Unknown
Orbital elements
Apogee altitude
1,043.75 km
Perigee altitude
1,042.505 km
Semi-major axis
7,421.265 km
Eccentricity
0.00008
Inclination
99.6976°
RAAN
267.5265°
Arg. of periapsis
79.2047°
True anomaly
280.90906°
Mean anomaly
280.9185°
Eccentric anomaly
280.91378°
Mean motion
3.39489 °/min
Orbital period
106.04 mins
BSTAR
0.00010003
Loading maneuver chart data...
Computing Atmospheric mass density...
Loading historical data...
Loading historical data...
Loading historical data...
Loading historical data...
Loading historical data...
Loading historical data...
Loading historical data...

Documentation

Showing up to 5 results
|